Toms River, NJ

7:39 PM EST on December 10, 2019 (GMT -0500)
Miller

Weather History for KMJX - August, 2019

Change the Weather History Date:

Thursday, August 1, 2019

  Actual Average Record
Temperature  
Mean Temperature 78 °F -  
Max Temperature 87 °F 84 °F 94 °F (1975)
Min Temperature 66 °F 64 °F 49 °F (1966)
Cooling Degree Days 12    
Growing Degree Days 28 (Base 50)    
Moisture  
Dew Point 65 °F    
Average Humidity 56    
Maximum Humidity 87    
Minimum Humidity 39    
Precipitation  
Precipitation 0.00 in - - ()
Sea Level Pressure  
Sea Level Pressure 30.08 in    
Wind  
Wind Speed 3 mph (East)    
Max Wind Speed 9 mph    
Max Gust Speed -    
Visibility 9 miles    
Events      
Averages and records for this station are not official NWS values.
T = Trace of Precipitation, MM = Missing Value Source: NWS Daily Summary

Daily Weather History Graph

Daily Weather History Graph

Search for Another Location

Airport or City:

Astronomy

Aug. 01, 2019 Rise Set
Actual Time 5:55 AM EDT 8:10 PM EDT
Civil Twilight 5:25 AM EDT 8:41 PM EDT
Nautical Twilight 4:47 AM EDT 9:18 PM EDT
Astronomical Twilight 4:06 AM EDT 9:59 PM EDT
Moon 6:16 AM EDT (8/1) 8:56 PM EDT (8/1)
Length of Visible Light 15h 15m
Length of Day
14h 15m
New Moon, 0% of the Moon is Illuminated
Aug 1
New Moon
Aug 7
First Quarter
Aug 15
Full
Aug 23
Last Quarter
Aug 30
New

Hourly Weather History & Observations

Time (EDT) Temp. Heat Index Dew Point Humidity Pressure Visibility Wind Dir Wind Speed Gust Speed Precip Events Conditions
12:56 AM - - - N/A% 30.04 in 10.0 mi Calm Calm - N/A   Clear
1:56 AM - - - N/A% 30.04 in 9.0 mi North 4.6 mph - N/A   Scattered Clouds
2:56 AM - - - N/A% 30.04 in 9.0 mi NW 4.6 mph - N/A   Scattered Clouds
3:56 AM - - - N/A% 30.05 in 5.0 mi ESE 3.5 mph - N/A   Haze
4:56 AM - - - N/A% 30.05 in 7.0 mi Calm Calm - N/A   Scattered Clouds
5:47 AM - - - N/A% 30.06 in 6.0 mi Calm Calm - N/A   Haze
5:56 AM - - - N/A% 30.06 in 5.0 mi Calm Calm - N/A   Haze
6:56 AM - - - N/A% 30.08 in 6.0 mi Calm Calm - N/A   Haze
7:56 AM - - - N/A% 30.09 in 9.0 mi Calm Calm - N/A   Clear
8:49 AM 73.4 °F - - N/A% 30.09 in 10.0 mi NE 3.5 mph - N/A   Partly Cloudy
8:56 AM 73.9 °F - - N/A% 30.09 in 10.0 mi NE 4.6 mph - N/A   Clear
9:56 AM 78.1 °F - 73.9 °F 87% 30.10 in 10.0 mi ENE 9.2 mph - N/A   Clear
10:56 AM 81.0 °F 83.0 °F 66.0 °F 60% 30.11 in 10.0 mi East 5.8 mph - N/A   Clear
11:56 AM 82.9 °F 84.6 °F 64.9 °F 54% 30.11 in 10.0 mi NE 8.1 mph - N/A   Clear
12:56 PM 84.9 °F 85.4 °F 62.1 °F 46% 30.12 in 10.0 mi Calm Calm - N/A   Clear
1:56 PM 87.1 °F 88.3 °F 64.0 °F 46% 30.11 in 10.0 mi ESE 5.8 mph - N/A   Partly Cloudy
2:56 PM 86.0 °F 85.7 °F 60.1 °F 41% 30.10 in 10.0 mi East 4.6 mph - N/A   Partly Cloudy
3:56 PM 87.1 °F 86.5 °F 59.0 °F 39% 30.08 in 10.0 mi Variable 6.9 mph - N/A   Clear
4:56 PM 86.0 °F 86.3 °F 62.1 °F 44% 30.07 in 10.0 mi ESE 8.1 mph - N/A   Clear
5:56 PM 82.0 °F 83.1 °F 63.0 °F 52% 30.07 in 10.0 mi SSE 5.8 mph - N/A   Clear
6:56 PM 80.1 °F 82.3 °F 66.9 °F 64% 30.07 in 10.0 mi SE 5.8 mph - N/A   Clear
7:56 PM 75.9 °F - 70.0 °F 82% 30.09 in 10.0 mi SSW 3.5 mph - N/A   Clear
8:56 PM 72.0 °F - - N/A% 30.10 in 10.0 mi Calm Calm - N/A   Clear
9:56 PM 69.1 °F - - N/A% 30.12 in 10.0 mi Calm Calm - N/A   Clear
10:56 PM 68.0 °F - - N/A% 30.12 in 10.0 mi Calm Calm - N/A   Clear
11:56 PM 66.0 °F - - N/A% 30.13 in 10.0 mi Calm Calm - N/A   Clear